Погода Родино

Погода Родино : погода сейчас, прогноз погоды и архив. Всё, что Вы хотите узнать о погоде Родино!

Поиск расширенной информации на нашем сайте:

Другие новости

Новости СМИ2

Главная страница сайта

Новости сайта

03.07.2017

Напоминаем, что на нашем специализированном сайте Метеоцентр.Азия вы можете получить высокодетализированные автоматические прогнозы погоды по пунктам России, СНГ и мира в авиационном формате (включающие направление и скорость ветра, видимость, явления погоды, количество и форму облачности, нижнюю и верхнюю границу облачности).

Рекомендуем: бани сауны екатеринбурга

Погода Родино - сегодня

Время (UTC), дата Ветер
(°,м/с) 
Видим.   Явления Облачность Т
(°С)
Тd
(°С)
f(%) Тe
(°С)
Pmin
(гПа)
dP
(гПа)
Po
(мм)
O2
(г/м3)
Тmin Tmax R s Состояние
почвы
09 20.02.18 150 (ЮВ) 20000 м    4/0 верхняя 
[Ci sp]
-7.3 -12.3 67 -7  1036.9  -1.4  762  317           
12 20.02.18 080 (В) 20000 м    5/0 верхняя 
[Ci sp]
-10.4 -13.8 76 -12  1035.1  -1.9  761  320    -5.7       
15 20.02.18 130 (ЮВ) 20000 м    3/0 верхняя 
[Ci sp]
-11.1 -14.5 76 -13  1033.7  -1.5  759  320           
18 20.02.18 140 (ЮВ) 20000 м    6/0 верхняя 
[Ci sp]
-12.8 -15.3 82 -15  1032.3  -1.6  758  322           
21 20.02.18 120 (ЮВ) 20000 м    1/0 верхняя 
[Ci fib]
-14.1 -15.9 86 -16  1030.3  -2  757  323           
00 21.02.18 090 (В) 20000 м    3/0 верхняя 
[Ci fib]
-14.1 -17.3 77 -16  1029.6  -0.7  756  323  -14.9      16  неравномерный
сухой снег
100% 
03 21.02.18 090 (В) 20000 м    8/0 верхняя 
[Ci sp]
-13.8 -17.7 72 -16  1026.6  -3  754  321           
06 21.02.18 100 (В) 20000 м    9/0 верхняя 
[Ci sp]
-7.3 -14.1 58 -9  1025  -1  753  313           
09 21.02.18 110 (В) 20000 м    8/0 верхняя 
[Ci fib]
-4 -10.7 60 -7  1021.8  -2.9  751  308           
12 21.02.18 110 (В) 20000 м    9/9 300 м кучево-дожд. 
[Cb cap]
-4.6 -10.8 62 -7  1018.8  -2.9  749  308    -3.6       
15 21.02.18 100 (В) 20000 м    8/5 300 м кучево-дожд., верхняя 
[Cb cap|Ci sp]
-6 -11.7 64 -9  1018.2  -0.7  748  309           
18 21.02.18 150 (ЮВ) 20000 м    10/10 450 м кучево-дожд. 
[Cb cap]
-5 -10.6 65 -9  1015.3  -2.8  746  307           
00 22.02.18 210 (ЮЗ) 7-10{10}  4000 м  слаб. ливневой снег  10/10 450 м кучево-дожд. 
[Cb cap]
-3.3 -4.1 94 -8  1015.1  0.3  746  305  -6.2    0.3  17  неравномерный
сухой снег
100% 
12 22.02.18 210 (ЮЗ) 3{10}  20000 м    1/0 верхняя 
[Ci sp]
-10.9 -13.3 82 -14  1025.1  1.9  753  317    -3.2  0.0     
15 22.02.18 210 (ЮЗ) 20000 м    3/0 верхняя 
[Ci sp]
-14.7 -16.1 89 -17  1027.3  1.7  754  323           
18 22.02.18 200 (Ю) 20000 м    4/0 верхняя 
[Ci sp]
-15.4 -16.9 88 -19  1027.7  0.4  755  324           
21 22.02.18 190 (Ю) 20000 м    3/0 верхняя 
[Ci sp]
-16.1 -17.8 87 -20  1027.5  -0.2  755  325           
00 23.02.18 180 (Ю) 20000 м    6/0 верхняя 
[Ci sp]
-14.4 -15.9 88 -19  1027  -0.4  754  322  -16.2      15  неравномерный
сухой снег
100% 
03 23.02.18 200 (Ю) 20000 м    9/9 300 м кучево-дожд. 
[Cb cap]
-12.3 -13.8 89 -17  1027.6  0.8  755  320           
06 23.02.18 210 (ЮЗ) 20000 м    9/0 верхняя 
[Ci sp]
-9.8 -12.7 79 -14  1026.7  -0.7  754  316           
09 23.02.18 220 (ЮЗ) 20000 м    6/0 верхняя 
[Ci sp]
-8.8 -12.3 76 -12  1026.2  -0.5  754  315           
12 23.02.18 тихо ()   20000 м    9/0 верхняя 
[Ci]
-10.9 -13.4 82 -11  1025.6  -0.7  753  317    -8.6       
15 23.02.18 080 (В) 20000 м    9/0 верхняя 
[Cc]
-14.7 -16.2 88 -15  1023.9  -1.9  752  322           
18 23.02.18 090 (В) 20000 м    9/0 верхняя 
[Cc]
-15.9 -17.6 87 -16  1023.1  -0.9  751  323           
21 23.02.18 тихо ()   20000 м    3/0 верхняя 
[Ci sp]
-18.9 -20.7 86 -19  1022.9  -0.5  751  327           
Время (UTC), дата Ветер
(°,м/с) 
Видим.   Явления Облачность Т
(°С)
Тd
(°С)
f(%) Тe
(°С)
Pmin
(гПа)
dP
(гПа)
Po
(мм)
O2
(г/м3)
Тmin Tmax R s Состояние
почвы

Для получения пояснительной информации подведите курсор к названию столбца.

ПОГОДА Родино - архив

Всё, что Вы хотите узнать о погоде Родино - удобно и подробно!

Выберите нужную дату (начиная с 1 января 2015* года) и нажмите кнопку "Найти".
Будут отображены архивные сводки погоды по пункту Родино, начиная с указанной даты.


Отображать данные в формате CSV (для использования в таблицах Excel)


Внимание! Наш архив погоды предназначен исключительно для личного некоммерческого использования в познавательных целях. Если Вам необходимы официальные справки о состоянии погоды (для производственных, юридических, коммерческих и т.п. целей), обращайтесь в органы Росгидромета.

*Примечание: данная дата относится к архиву по метеостанциям СССР (Россия, СНГ, Балтия).
Архив по метеостанциям Зарубежной Европы и Азии (кроме Китая) хранится 10 дней, по другим регионам земного шара (Китай, Африка, Америка, Австралия, Океания) - 1 день.

Родино - район местоположения метеостанции


Название, широта, долгота, высота метеостанции:
Родино 52.5°ш. 80.2°д. 59 м над ур. моря [Российская Федерация]

Дополнительная информация

В oтличие oт бoльшинства пoгoдных сайтoв мы публикуем пoдрoбную метеoинфoрмацию в детальнoм прoфессиoнальнoм фoрмате.

Характеристики температуры и влажнoсти вoздуха измеряются на высoте 2 м в тени вдали oт зданий и деревьев.
Скoрoсть ветра измеряется на высoте 10 м (на урoвне рoста челoвека скoрoсть ветра ниже в 1.5-2 раза). Если метеoстанция нахoдится в гoрoде или в лесу, тo скoрoсть ветра занижена на 2-4 м/с пo сравнению с oткрытым местoм. Скoрoсть ветра над акватoриями крупных рек и oзёр, а также на вершинах хoлмoв на 2-5 м/с выше, чем в oбычных услoвиях.
Атмoсфернoе давление в разных тoчках местнoсти мoжет значительнo oтличаться oт давления на метеoстанции, в зависимoсти oт услoвий рельефа (при пoдъёме на 10 м давление пoнижается примернo на 1 мм рт.ст.).